Location: Clyde
(45.1830°S, 169.3170°E)
Time: 07:26:47
(UTC+12:00)

CZ-4B R/B - Pass Details

Date: 14 May 2021
Orbit: 489 x 647 km, 97.9° (Epoch: 20 June)

Event Time Altitude Azimuth Distance (km) Brightness Sun altitude
Rises 18:50:54 0° 173° (S) 2,999 6.4 -15.2°
Reaches altitude 10° 18:53:14 10° 179° (S) 2,070 5.6 -15.6°
Maximum altitude 18:57:31 44° 250° (WSW) 892 4.3 -16.3°
Drops below altitude 10° 19:01:38 10° 321° (NW) 1,979 6.3 -17.0°
Sets 19:03:49 0° 328° (NNW) 2,851 7.1 -17.4°
